Time,TemperatureF,DewpointF,PressureIn,WindDirection,WindDirectionDegrees,WindSpeedMPH,WindSpeedGustMPH,Humidity,HourlyPrecipIn,Conditions,Clouds,dailyrainin,SoftwareType,DateUTC
2013-06-03 00:00:00,64.2,54.6,29.74,East,90,0.0,8.0,71,0.00,,SKC,0.00,VWS V14.01,2013-06-03 04:00:00,
2013-06-03 01:00:00,63.1,55.1,29.76,East,90,1.0,6.0,75,0.00,,SKC,0.00,VWS V14.01,2013-06-03 05:00:00,
2013-06-03 02:00:00,61.8,55.6,29.76,East,90,2.0,8.0,80,0.00,,SKC,0.00,VWS V14.01,2013-06-03 06:00:00,
2013-06-03 03:00:00,59.2,51.7,29.77,East,90,1.0,9.0,76,0.00,,SKC,0.00,VWS V14.01,2013-06-03 07:00:00,
2013-06-03 04:00:00,57.6,51.5,29.78,ESE,112,1.0,8.0,80,0.00,,SKC,0.00,VWS V14.01,2013-06-03 08:00:00,
2013-06-03 05:00:00,56.8,49.7,29.80,East,90,2.0,9.0,77,0.00,,SKC,0.00,VWS V14.01,2013-06-03 09:00:00,
2013-06-03 06:00:00,56.0,48.9,29.82,East,90,2.0,11.0,77,0.00,,SKC,0.00,VWS V14.01,2013-06-03 10:00:00,
2013-06-03 07:00:00,55.5,48.1,29.83,East,90,2.0,10.0,76,0.00,,SKC,0.00,VWS V14.01,2013-06-03 11:00:00,
2013-06-03 08:00:00,55.2,47.4,29.85,East,90,2.0,10.0,75,0.00,,SKC,0.00,VWS V14.01,2013-06-03 12:00:00,
2013-06-03 09:00:00,55.4,47.3,29.86,East,90,2.0,10.0,74,0.00,,SKC,0.00,VWS V14.01,2013-06-03 13:00:00,
2013-06-03 10:00:00,56.8,47.1,29.87,East,90,2.0,9.0,70,0.00,,SKC,0.00,VWS V14.01,2013-06-03 14:00:00,
2013-06-03 11:00:00,58.3,48.2,29.87,East,90,2.0,10.0,69,0.00,,SKC,0.00,VWS V14.01,2013-06-03 15:00:00,
2013-06-03 12:00:00,58.8,47.5,29.87,East,90,2.0,10.0,66,0.00,,SKC,0.00,VWS V14.01,2013-06-03 16:00:00,
2013-06-03 13:00:00,60.1,47.0,29.87,East,90,3.0,11.0,62,0.00,,SKC,0.00,VWS V14.01,2013-06-03 17:00:00,
2013-06-03 14:00:00,62.8,46.9,29.85,East,90,2.0,9.0,56,0.00,,SKC,0.00,VWS V14.01,2013-06-03 18:00:00,
2013-06-03 15:00:00,65.3,46.2,29.84,East,90,2.0,11.0,50,0.00,,SKC,0.00,VWS V14.01,2013-06-03 19:00:00,
2013-06-03 16:00:00,65.9,44.6,29.83,East,90,2.0,10.0,46,0.00,,SKC,0.00,VWS V14.01,2013-06-03 20:00:00,
2013-06-03 17:00:00,66.7,44.1,29.83,East,90,2.0,11.0,44,0.00,,SKC,0.00,VWS V14.01,2013-06-03 21:00:00,
2013-06-03 18:00:00,65.7,39.4,29.86,ESE,112,3.0,12.0,38,0.00,,SKC,0.00,VWS V14.01,2013-06-03 22:00:00,
2013-06-03 19:00:00,63.0,38.3,29.88,East,90,2.0,12.0,40,0.00,,SKC,0.00,VWS V14.01,2013-06-03 23:00:00,
2013-06-03 20:00:00,59.4,38.1,29.90,East,90,1.0,7.0,45,0.00,,SKC,0.00,VWS V14.01,2013-06-04 00:00:00,
2013-06-03 21:00:00,55.3,37.5,29.93,ESE,112,0.0,5.0,51,0.00,,SKC,0.00,VWS V14.01,2013-06-04 01:00:00,
2013-06-03 22:00:00,51.8,36.2,29.96,ESE,112,0.0,3.0,55,0.00,,SKC,0.00,VWS V14.01,2013-06-04 02:00:00,
2013-06-03 23:00:00,48.7,38.6,29.97,ESE,112,0.0,0.0,68,0.00,,SKC,0.00,VWS V14.01,2013-06-04 03:00:00,